This is the latest recevied weather packets stored in our database for station/object WD9U. If no packets are shown the sender has not sent any weather packets the latest 10 day(s).
| Time | Temp. | Humidity | Pressure | Rain* | Wind** | Luminosity | Snow |
|---|---|---|---|---|---|---|---|
| 1777648029 | 5° C | 52% | 1020.7 hPa | 0 mm | - | 636 W/m² | - |
| 1777647912 | 5° C | 53% | 1020.7 hPa | 0 mm | - | 624 W/m² | - |
| 1777647669 | 4.44° C | 52% | 1020.7 hPa | 0 mm | - | 612 W/m² | - |
| 1777647309 | 5° C | 54% | 1020.6 hPa | 0 mm | - | 597 W/m² | - |
| 1777646949 | 5° C | 54% | 1020.6 hPa | 0 mm | - | 598 W/m² | - |
| 1777646711 | 4.44° C | 55% | 1020.7 hPa | 0 mm | - | 568 W/m² | - |
| 1777646589 | 4.44° C | 54% | 1020.5 hPa | 0 mm | - | 572 W/m² | - |
| 1777646229 | 4.44° C | 56% | 1020.6 hPa | 0 mm | - | 564 W/m² | - |
| 1777645869 | 4.44° C | 53% | 1020.7 hPa | 0 mm | - | 534 W/m² | - |
| 1777645509 | 3.89° C | 54% | 1020.6 hPa | 0 mm | - | 512 W/m² | - |
| 1777645149 | 3.89° C | 56% | 1020.6 hPa | 0 mm | - | 508 W/m² | - |
| 1777644789 | 3.89° C | 55% | 1020.6 hPa | 0 mm | - | 464 W/m² | - |
| 1777644437 | 3.89° C | 56% | 1020.5 hPa | 0 mm | - | 458 W/m² | - |
| 1777644077 | 3.89° C | 59% | 1020.7 hPa | 0 mm | - | 404 W/m² | - |
| 1777643717 | 3.89° C | 61% | 1020.5 hPa | 0 mm | - | 444 W/m² | - |
| 1777643357 | 3.33° C | 61% | 1020.5 hPa | 0 mm | - | 438 W/m² | - |
| 1777643119 | 3.33° C | 61% | 1020.5 hPa | 0 mm | - | 420 W/m² | - |
| 1777642997 | 3.33° C | 63% | 1020.5 hPa | 0 mm | - | 418 W/m² | - |
| 1777642637 | 3.33° C | 64% | 1020.4 hPa | 0 mm | - | 399 W/m² | - |
| 1777642277 | 3.33° C | 64% | 1020.5 hPa | 0 mm | - | 376 W/m² | - |
| 1777641916 | 3.33° C | 65% | 1020.5 hPa | 0 mm | - | 380 W/m² | - |
| 1777641556 | 2.78° C | 67% | 1020.5 hPa | 0 mm | - | 370 W/m² | - |
| 1777641196 | 2.78° C | 65% | 1020.3 hPa | 0 mm | - | 348 W/m² | - |
| 1777640836 | 2.78° C | 65% | 1020.3 hPa | 0 mm | - | 322 W/m² | - |
| 1777640718 | 2.78° C | 66% | 1020.3 hPa | 0 mm | - | 316 W/m² | - |
* Rain latest hour (hover to see other rain measurements)
** Current wind speed in m/s (hover to see current wind gust speed)